Miscellaneous Local Product
Issued by NWS North Platte, NE

Home | Current Version | Previous Version | Text Only | Print | Product List | Glossary On
Versions: 1 2 3 4 5 6 7 8 9 10 11 12 13 14 15 16 17 18 19 20 21 22 23 24 25 26 27 28 29 30 31 32 33 34 35 36 37 38 39 40 41 42 43 44 45 46 47 48 49 50
000
AXUS43 KLBF 282010
MISLBF


WESTERN AND NORTH CENTRAL NEBRASKA HOURLY WEATHER ROUNDUP
NATIONAL WEATHER SERVICE NORTH PLATTE NE
300 PM CDT THU APR 28 2016

NOTE: "FAIR" INDICATES FEW OR NO CLOUDS BELOW 12,000 FEET WITH NO
SIGNIFICANT WEATHER AND/OR OBSTRUCTIONS TO VISIBILITY.

NOTE: STATIONS NOT REPORTING VARIABLES SUCH AS SKY/WEATHER OR
PRESSURE ARE PROVIDED BY RAWS AND APRS NETWORKS AND ARE NOT UNDER
NATIONAL WEATHER SERVICE QUALITY CONTROL.

...OBSERVATIONS IN AND NEAR THE EASTERN PANHANDLE OF NEBRASKA...

CITY           SKY/WX    TMP DP  RH WIND       PRES   REMARKS
PINE RIDGE     CLOUDY    42  34  73 N14       30.02F
CHADRON        CLOUDY    43  33  68 N8        30.03S
ALLIANCE       CLOUDY    42  30  62 N10       29.99F
SIDNEY         CLOUDY    38  30  73 E6        30.01S WCI  33
CRESCENT LAKE    N/A     42  30  61 NE6G14      N/A
BIG SPRINGS      N/A     46  32  58 CALM        N/A
$$

...OBSERVATIONS IN NORTHERN NEBRASKA AND FAR SOUTHERN SOUTH DAKOTA...

CITY           SKY/WX    TMP DP  RH WIND       PRES   REMARKS
WINNER         CLOUDY    42  36  79 NW13      30.04S
VALENTINE      CLOUDY    43  35  73 N13       30.02S
THEDFORD       CLOUDY    46  36  69 N6        30.01S
AINSWORTH      CLOUDY    44  37  78 NW10      30.02R
O`NEILL        CLOUDY    45  39  80 N13G18    30.01S
ORD            CLOUDY    46  39  76 NW12      30.00R
BROKEN BOW     CLOUDY    46  38  73 N9        30.00S
VALENTINE NWR    N/A     42  35  77 N10G20      N/A
BUTTE            N/A     40  38  93 NW12        N/A  WCI  33
HALSEY           N/A     44  37  75 N6          N/A
CHAMBERS         N/A     48  40  73 N5          N/A
EWING            N/A     44  41  89 NW10        N/A
$$

...OBSERVATIONS IN SOUTHWEST NEBRASKA AND FAR NORTHEAST COLORADO...

CITY           SKY/WX    TMP DP  RH WIND       PRES   REMARKS
IMPERIAL       LGT RAIN  44  34  67 E7        30.02S
OGALLALA       CLOUDY    48  30  50 CALM      30.01R
NORTH PLATTE   CLOUDY    47  34  60 CALM      30.01R
MCCOOK         LGT RAIN  51  36  56 VRB3      30.01S
LEXINGTON      CLOUDY    48  39  69 N7        30.02R
PAXTON           N/A     48  36  62 N3          N/A
STAPLETON        N/A     46  37  72 CALM        N/A
GOTHENBURG       N/A     47  34  61 N6          N/A
CALLAWAY         N/A     44  38  80 N5          N/A
$$

...OBSERVATIONS IN CENTRAL LINCOLN COUNTY AREA...

CITY           SKY/WX    TMP DP  RH WIND       PRES   REMARKS
N.P. AIRPORT   CLOUDY    47  34  60 CALM      30.01R
N.P. DOWNTOWN    N/A     46  36  69 CALM        N/A
N.P. SOUTHEAST   N/A     47  35  64 CALM        N/A
N.P. HILLCREST   N/A     46  37  70 CALM        N/A
$$

...SOME OBSERVATIONS FROM AROUND THE REGION...

CITY           SKY/WX    TMP DP  RH WIND       PRES   REMARKS
DENVER         CLOUDY    38  30  73 E14       29.97S WCI  30
LARAMIE        LGT SNOW  30  26  85 E10       29.91S VSB 1   WCI  21
CHEYENNE       LGT SNOW  34  31  88 E7        29.96S FOG     WCI  28
SCOTTSBLUFF    CLOUDY    45  29  53 N5        30.00F
RAPID CITY     CLOUDY    40  33  76 N13       30.05S WCI  32
BISMARCK       CLOUDY    56  22  26 NE15      30.09S
PIERRE         CLOUDY    44  36  73 N13       30.05R
SIOUX FALLS    CLOUDY    43  37  79 N10       29.99R
OMAHA          CLOUDY    51  43  74 NW12      29.97R
GRAND ISLAND   CLOUDY    50  40  68 N10       30.01R
KANSAS CITY    CLOUDY    55  46  71 NW10      29.98R
WICHITA        MOSUNNY   65  44  46 NE7       29.97F
OKLAHOMA CITY  PTSUNNY   72  48  42 SE8       29.93F
DALLAS         MOSUNNY   83  59  44 SE13G20   29.84F
AMARILLO       MOSUNNY   73  50  44 SE18G32   29.84F
DODGE CITY     MOSUNNY   58  34  40 NE12G21   29.97F
HAYS           MOSUNNY   55  36  47 N9        30.00F
GOODLAND       CLOUDY    49  32  52 NE13      29.99S
$$




USA.gov is the U.S. government's official web portal to all federal, state and local government web resources and services.